Location: Nordegg
(52.4712°N, 116.0743°W)
Time: 09:47:49
(UTC+00:00)

Envisat - Pass Details

Date: 05 December 2021
Orbit: 764 x 766 km, 98.2° (Epoch: 28 January)

Event Time Altitude Azimuth Distance (km) Brightness Sun altitude
Rises 11:34:12 0° 25° (NNE) 3,247 6.7 -35.9°
Reaches altitude 10° 11:37:10 10° 43° (NE) 2,315 6.0 -35.4°
Maximum altitude 11:40:48 19° 88° (E) 1,750 5.5 -34.9°
Drops below altitude 10° 11:44:25 10° 134° (SE) 2,302 5.8 -34.3°
Sets 11:47:21 0° 152° (SSE) 3,222 6.5 -33.9°
